Location: Rumah Geringgi
(3.1667°N, 113.1667°E)
Time: 19:37:36
(UTC+00:00)

SL-16 R/B - Pass Details

Date: 03 August 2024
Orbit: 841 x 847 km, 71.0° (Epoch: 19 September)

Event Time Altitude Azimuth Distance (km) Brightness Sun altitude
Exits shadow 21:36:16 17° 257° (WSW) 2,011 3.5 -12.7°
Maximum altitude 21:38:27 21° 286° (WNW) 1,805 3.5 -12.2°
Drops below altitude 10° 21:42:37 10° 334° (NNW) 2,459 4.5 -11.2°
Sets 21:45:39 0° 350° (N) 3,393 5.5 -10.4°
